Time,TemperatureF,DewpointF,PressureIn,WindDirection,WindDirectionDegrees,WindSpeedMPH,WindSpeedGustMPH,Humidity,HourlyPrecipIn,Conditions,Clouds,dailyrainin,SoftwareType,DateUTC
2013-09-14 00:00:00,79.5,-99.9,29.79,SE,146,0.0,0.0,0,0.00,,,0.00,Wunderground v.1.15,2013-09-14 04:00:00,
2013-09-14 00:05:00,79.7,-99.9,29.79,SE,145,0.0,0.0,0,0.00,,,0.00,Wunderground v.1.15,2013-09-14 04:05:00,
2013-09-14 00:06:00,79.7,-99.9,29.79,SE,146,0.0,-999.0,0,-99.99,,,0.00,weatherlink.com 1.10,2013-09-14 04:06:00,
2013-09-14 00:10:00,79.6,-99.9,29.79,SE,146,0.0,0.0,0,0.00,,,0.00,Wunderground v.1.15,2013-09-14 04:10:00,
2013-09-14 00:15:00,79.6,-99.9,29.79,SE,146,0.0,0.0,0,0.00,,,0.00,Wunderground v.1.15,2013-09-14 04:15:00,
2013-09-14 00:20:00,79.7,-99.9,29.79,SE,146,0.0,0.0,0,0.00,,,0.00,Wunderground v.1.15,2013-09-14 04:20:00,
2013-09-14 00:30:00,79.9,-99.9,29.78,SE,146,0.0,0.0,0,0.00,,,0.00,Wunderground v.1.15,2013-09-14 04:30:00,
2013-09-14 00:35:00,79.9,-99.9,29.78,SE,146,0.0,-999.0,0,-99.99,,,0.00,weatherlink.com 1.10,2013-09-14 04:35:00,
2013-09-14 00:40:00,79.8,-99.9,29.78,SE,145,0.0,0.0,0,0.00,,,0.00,Wunderground v.1.15,2013-09-14 04:40:00,
2013-09-14 00:45:00,79.6,-99.9,29.78,SE,146,0.0,0.0,0,0.00,,,0.00,Wunderground v.1.15,2013-09-14 04:45:00,
2013-09-14 00:50:00,79.3,-99.9,29.78,SE,146,0.0,0.0,0,0.00,,,0.00,Wunderground v.1.15,2013-09-14 04:50:00,
2013-09-14 00:55:00,79.2,-99.9,29.77,SE,146,0.0,0.0,0,0.00,,,0.00,Wunderground v.1.15,2013-09-14 04:55:00,
2013-09-14 01:00:00,79.1,-99.9,29.77,SE,146,0.0,0.0,0,0.00,,,0.00,Wunderground v.1.15,2013-09-14 05:00:00,
2013-09-14 01:05:00,78.9,-99.9,29.77,SE,146,0.0,0.0,0,0.00,,,0.00,Wunderground v.1.15,2013-09-14 05:05:00,
2013-09-14 01:15:00,78.6,-99.9,29.77,SE,146,0.0,0.0,0,0.00,,,0.00,Wunderground v.1.15,2013-09-14 05:15:00,
2013-09-14 01:25:00,78.5,-99.9,29.76,SE,145,0.0,0.0,0,0.00,,,0.00,Wunderground v.1.15,2013-09-14 05:25:00,
2013-09-14 01:30:00,78.5,-99.9,29.76,SE,146,0.0,3.0,0,0.00,,,0.00,Wunderground v.1.15,2013-09-14 05:30:00,
2013-09-14 01:36:00,78.4,-99.9,29.76,SE,146,0.0,-999.0,0,-99.99,,,0.00,weatherlink.com 1.10,2013-09-14 05:36:00,
2013-09-14 01:45:00,78.2,-99.9,29.76,SE,146,0.0,0.0,0,0.00,,,0.00,Wunderground v.1.15,2013-09-14 05:45:00,
2013-09-14 01:55:00,78.3,-99.9,29.76,SE,145,0.0,0.0,0,0.00,,,0.00,Wunderground v.1.15,2013-09-14 05:55:00,
2013-09-14 02:05:00,78.3,-99.9,29.76,SE,146,0.0,0.0,0,0.00,,,0.00,Wunderground v.1.15,2013-09-14 06:05:00,
2013-09-14 02:15:00,78.1,-99.9,29.75,SE,146,0.0,0.0,0,0.00,,,0.00,Wunderground v.1.15,2013-09-14 06:15:00,
2013-09-14 02:20:00,78.1,-99.9,29.75,SE,146,0.0,-999.0,0,-99.99,,,0.00,weatherlink.com 1.10,2013-09-14 06:20:00,
2013-09-14 02:25:00,78.1,-99.9,29.75,SE,146,0.0,0.0,0,0.00,,,0.00,Wunderground v.1.15,2013-09-14 06:25:00,
2013-09-14 02:30:00,78.0,-99.9,29.75,SE,146,0.0,0.0,0,0.00,,,0.00,Wunderground v.1.15,2013-09-14 06:30:00,
2013-09-14 02:35:00,77.9,-99.9,29.75,SE,146,0.0,0.0,0,0.00,,,0.00,Wunderground v.1.15,2013-09-14 06:35:00,
2013-09-14 02:45:00,77.8,-99.9,29.75,SSE,147,0.0,0.0,0,0.00,,,0.00,Wunderground v.1.15,2013-09-14 06:45:00,
2013-09-14 02:50:00,77.7,-99.9,29.75,SSE,148,0.0,0.0,0,0.00,,,0.00,Wunderground v.1.15,2013-09-14 06:50:00,
2013-09-14 03:00:00,77.6,-99.9,29.75,SSE,150,0.0,0.0,0,0.00,,,0.00,Wunderground v.1.15,2013-09-14 07:00:00,
2013-09-14 03:05:00,77.6,-99.9,29.75,SSE,150,0.0,0.0,0,0.00,,,0.00,Wunderground v.1.15,2013-09-14 07:05:00,
2013-09-14 03:10:00,77.6,-99.9,29.75,SSE,150,0.0,0.0,0,0.00,,,0.00,Wunderground v.1.15,2013-09-14 07:10:00,
2013-09-14 03:20:00,77.6,-99.9,29.75,SSE,149,0.0,0.0,0,0.00,,,0.00,Wunderground v.1.15,2013-09-14 07:20:00,
2013-09-14 03:25:00,77.5,-99.9,29.75,SSE,150,0.0,0.0,0,0.00,,,0.00,Wunderground v.1.15,2013-09-14 07:25:00,
2013-09-14 03:35:00,77.7,-99.9,29.75,SSE,150,0.0,0.0,0,0.00,,,0.00,Wunderground v.1.15,2013-09-14 07:35:00,
2013-09-14 03:45:00,77.9,-99.9,29.75,SSE,150,0.0,0.0,0,0.00,,,0.00,Wunderground v.1.15,2013-09-14 07:45:00,
2013-09-14 03:51:00,77.9,-99.9,29.75,SSE,150,0.0,-999.0,0,-99.99,,,0.00,weatherlink.com 1.10,2013-09-14 07:51:00,
2013-09-14 04:00:00,77.9,-99.9,29.75,SSE,149,0.0,0.0,0,0.00,,,0.00,Wunderground v.1.15,2013-09-14 08:00:00,
2013-09-14 04:05:00,77.9,-99.9,29.75,SSE,149,0.0,0.0,0,0.00,,,0.00,Wunderground v.1.15,2013-09-14 08:05:00,
2013-09-14 04:10:00,77.8,-99.9,29.75,SSE,149,0.0,0.0,0,0.00,,,0.00,Wunderground v.1.15,2013-09-14 08:10:00,
2013-09-14 04:20:00,77.8,-99.9,29.76,SSE,150,0.0,0.0,0,0.00,,,0.00,Wunderground v.1.15,2013-09-14 08:20:00,
2013-09-14 04:30:00,78.0,-99.9,29.76,SSE,149,0.0,0.0,0,0.00,,,0.00,Wunderground v.1.15,2013-09-14 08:30:00,
2013-09-14 04:35:00,77.9,-99.9,29.76,SSE,150,0.0,0.0,0,0.00,,,0.00,Wunderground v.1.15,2013-09-14 08:35:00,
2013-09-14 04:40:00,77.9,-99.9,29.76,SSE,149,0.0,0.0,0,0.00,,,0.00,Wunderground v.1.15,2013-09-14 08:40:00,
2013-09-14 04:50:00,77.9,-99.9,29.76,SSE,149,0.0,0.0,0,0.00,,,0.00,Wunderground v.1.15,2013-09-14 08:50:00,
2013-09-14 05:00:00,77.8,-99.9,29.76,SSE,149,0.0,4.0,0,0.00,,,0.00,Wunderground v.1.15,2013-09-14 09:00:00,
2013-09-14 05:06:00,77.9,-99.9,29.76,SSE,149,0.0,-999.0,0,-99.99,,,0.00,weatherlink.com 1.10,2013-09-14 09:06:00,
2013-09-14 05:15:00,77.8,-99.9,29.76,SSE,149,0.0,0.0,0,0.00,,,0.00,Wunderground v.1.15,2013-09-14 09:15:00,
2013-09-14 05:20:00,77.8,-99.9,29.76,SSE,150,0.0,0.0,0,0.00,,,0.00,Wunderground v.1.15,2013-09-14 09:20:00,
2013-09-14 05:25:00,77.6,-99.9,29.76,SSE,150,0.0,0.0,0,0.00,,,0.00,Wunderground v.1.15,2013-09-14 09:25:00,
2013-09-14 05:35:00,77.6,-99.9,29.77,SSE,150,0.0,0.0,0,0.00,,,0.00,Wunderground v.1.15,2013-09-14 09:35:00,
2013-09-14 05:40:00,77.6,-99.9,29.77,SSE,149,0.0,0.0,0,0.00,,,0.00,Wunderground v.1.15,2013-09-14 09:40:00,
2013-09-14 05:50:00,77.5,-99.9,29.77,SSE,150,0.0,0.0,0,0.00,,,0.00,Wunderground v.1.15,2013-09-14 09:50:00,
2013-09-14 06:00:00,77.4,-99.9,29.77,SSE,150,1.0,1.0,0,0.00,,,0.00,Wunderground v.1.15,2013-09-14 10:00:00,
2013-09-14 06:05:00,77.3,-99.9,29.77,SSE,150,0.0,1.0,0,0.00,,,0.00,Wunderground v.1.15,2013-09-14 10:05:00,
2013-09-14 06:15:00,77.1,-99.9,29.78,SSE,149,0.0,0.0,0,0.00,,,0.00,Wunderground v.1.15,2013-09-14 10:15:00,
2013-09-14 06:22:00,77.1,-99.9,29.78,SSE,149,0.0,-999.0,0,-99.99,,,0.00,weatherlink.com 1.10,2013-09-14 10:22:00,
2013-09-14 06:30:00,76.9,-99.9,29.78,SSE,150,0.0,0.0,0,0.00,,,0.00,Wunderground v.1.15,2013-09-14 10:30:00,
2013-09-14 06:38:00,76.9,-99.9,29.79,SSE,149,0.0,-999.0,0,-99.99,,,0.00,weatherlink.com 1.10,2013-09-14 10:38:00,
2013-09-14 06:45:00,77.0,-99.9,29.79,SSE,149,0.0,0.0,0,0.00,,,0.00,Wunderground v.1.15,2013-09-14 10:45:00,
2013-09-14 06:50:00,77.0,-99.9,29.79,SSE,150,0.0,0.0,0,0.00,,,0.00,Wunderground v.1.15,2013-09-14 10:50:00,
2013-09-14 07:00:00,77.0,-99.9,29.79,SSE,149,0.0,0.0,0,0.00,,,0.00,Wunderground v.1.15,2013-09-14 11:00:00,
2013-09-14 07:05:00,77.1,-99.9,29.79,SSE,150,0.0,0.0,0,0.00,,,0.00,Wunderground v.1.15,2013-09-14 11:05:00,
2013-09-14 07:15:00,77.5,-99.9,29.79,SSE,149,0.0,0.0,0,0.00,,,0.00,Wunderground v.1.15,2013-09-14 11:15:00,
2013-09-14 07:20:00,77.7,-99.9,29.79,SSE,149,0.0,0.0,0,0.00,,,0.00,Wunderground v.1.15,2013-09-14 11:20:00,
2013-09-14 07:30:00,78.2,-99.9,29.80,SSE,149,0.0,6.0,0,0.00,,,0.00,Wunderground v.1.15,2013-09-14 11:30:00,
2013-09-14 07:38:00,78.5,-99.9,29.80,SSE,150,0.0,-999.0,0,-99.99,,,0.00,weatherlink.com 1.10,2013-09-14 11:38:00,
2013-09-14 07:45:00,79.1,-99.9,29.80,SSE,150,0.0,0.0,0,0.00,,,0.00,Wunderground v.1.15,2013-09-14 11:45:00,
2013-09-14 07:53:00,79.9,-99.9,29.81,SSE,149,0.0,-999.0,0,-99.99,,,0.00,weatherlink.com 1.10,2013-09-14 11:53:00,
2013-09-14 08:00:00,80.6,-99.9,29.81,SSE,149,0.0,0.0,0,0.00,,,0.00,Wunderground v.1.15,2013-09-14 12:00:00,
2013-09-14 08:08:00,81.2,-99.9,29.81,SSE,150,0.0,-999.0,0,-99.99,,,0.00,weatherlink.com 1.10,2013-09-14 12:08:00,
2013-09-14 08:15:00,81.4,-99.9,29.81,SSE,155,0.0,5.0,0,0.00,,,0.00,Wunderground v.1.15,2013-09-14 12:15:00,
2013-09-14 08:20:00,81.4,-99.9,29.81,SSE,156,1.0,1.0,0,0.00,,,0.00,Wunderground v.1.15,2013-09-14 12:20:00,
2013-09-14 08:30:00,81.4,-99.9,29.81,SSE,150,1.0,5.0,0,0.00,,,0.00,Wunderground v.1.15,2013-09-14 12:30:00,
2013-09-14 08:35:00,81.5,-99.9,29.82,SSE,152,2.0,8.0,0,0.00,,,0.00,Wunderground v.1.15,2013-09-14 12:35:00,
2013-09-14 08:45:00,81.4,-99.9,29.82,SSE,163,4.0,5.0,0,0.00,,,0.00,Wunderground v.1.15,2013-09-14 12:45:00,
2013-09-14 08:55:00,81.7,-99.9,29.82,SSE,157,2.0,-999.0,0,-99.99,,,0.00,weatherlink.com 1.10,2013-09-14 12:55:00,
2013-09-14 09:00:00,81.7,-99.9,29.82,SE,144,4.0,4.0,0,0.00,,,0.00,Wunderground v.1.15,2013-09-14 13:00:00,
2013-09-14 09:05:00,81.9,-99.9,29.82,SSE,164,5.0,5.0,0,0.00,,,0.00,Wunderground v.1.15,2013-09-14 13:05:00,
2013-09-14 09:15:00,82.0,-99.9,29.82,SSE,149,5.0,7.0,0,0.00,,,0.00,Wunderground v.1.15,2013-09-14 13:15:00,
2013-09-14 09:24:00,82.7,-99.9,29.82,SE,128,5.0,-999.0,0,-99.99,,,0.00,weatherlink.com 1.10,2013-09-14 13:24:00,
2013-09-14 09:30:00,82.7,-99.9,29.83,ESE,117,4.0,6.0,0,0.00,,,0.00,Wunderground v.1.15,2013-09-14 13:30:00,
2013-09-14 09:35:00,82.8,-99.9,29.83,SE,140,5.0,6.0,0,0.00,,,0.00,Wunderground v.1.15,2013-09-14 13:35:00,
2013-09-14 09:45:00,82.8,-99.9,29.83,SE,138,5.0,5.0,0,0.00,,,0.00,Wunderground v.1.15,2013-09-14 13:45:00,
2013-09-14 09:50:00,82.9,-99.9,29.83,ESE,117,5.0,5.0,0,0.00,,,0.00,Wunderground v.1.15,2013-09-14 13:50:00,
2013-09-14 09:55:00,83.0,-99.9,29.83,SE,125,5.0,5.0,0,0.00,,,0.00,Wunderground v.1.15,2013-09-14 13:55:00,
2013-09-14 10:00:00,83.0,-99.9,29.83,SE,127,6.0,6.0,0,0.00,,,0.00,Wunderground v.1.15,2013-09-14 14:00:00,
2013-09-14 10:05:00,83.2,-99.9,29.83,ESE,108,6.0,6.0,0,0.00,,,0.00,Wunderground v.1.15,2013-09-14 14:05:00,
2013-09-14 10:10:00,83.5,-99.9,29.83,ESE,107,4.0,5.0,0,0.00,,,0.00,Wunderground v.1.15,2013-09-14 14:10:00,
2013-09-14 10:15:00,83.7,-99.9,29.83,ESE,102,2.0,5.0,0,0.00,,,0.00,Wunderground v.1.15,2013-09-14 14:15:00,
2013-09-14 10:24:00,83.8,-99.9,29.83,ESE,119,2.0,-999.0,0,-99.99,,,0.00,weatherlink.com 1.10,2013-09-14 14:24:00,
2013-09-14 10:30:00,84.0,-99.9,29.83,SE,138,3.0,6.0,0,0.00,,,0.00,Wunderground v.1.15,2013-09-14 14:30:00,
2013-09-14 10:40:00,83.5,-99.9,29.83,East,87,9.0,-999.0,0,-99.99,,,0.00,weatherlink.com 1.10,2013-09-14 14:40:00,
2013-09-14 10:50:00,83.4,-99.9,29.83,East,95,5.0,5.0,0,0.00,,,0.00,Wunderground v.1.15,2013-09-14 14:50:00,
2013-09-14 10:55:00,83.3,-99.9,29.83,East,88,4.0,5.0,0,0.00,,,0.00,Wunderground v.1.15,2013-09-14 14:55:00,
2013-09-14 11:00:00,83.5,-99.9,29.83,East,98,4.0,4.0,0,0.00,,,0.00,Wunderground v.1.15,2013-09-14 15:00:00,
2013-09-14 11:10:00,83.3,-99.9,29.83,ESE,123,5.0,10.0,0,0.00,,,0.00,Wunderground v.1.15,2013-09-14 15:10:00,
2013-09-14 11:15:00,83.4,-99.9,29.83,ESE,102,5.0,10.0,0,0.00,,,0.00,Wunderground v.1.15,2013-09-14 15:15:00,
2013-09-14 11:20:00,83.7,-99.9,29.83,ESE,112,6.0,11.0,0,0.00,,,0.00,Wunderground v.1.15,2013-09-14 15:20:00,
2013-09-14 11:26:00,84.0,-99.9,29.83,ESE,108,13.0,-999.0,0,-99.99,,,0.00,weatherlink.com 1.10,2013-09-14 15:26:00,
2013-09-14 11:35:00,84.1,-99.9,29.83,East,97,7.0,10.0,0,0.00,,,0.00,Wunderground v.1.15,2013-09-14 15:35:00,
2013-09-14 11:41:00,84.2,-99.9,29.83,ESE,106,12.0,-999.0,0,-99.99,,,0.00,weatherlink.com 1.10,2013-09-14 15:41:00,
2013-09-14 11:50:00,84.4,-99.9,29.83,East,82,7.0,7.0,0,0.00,,,0.00,Wunderground v.1.15,2013-09-14 15:50:00,
2013-09-14 11:55:00,84.4,-99.9,29.83,East,101,7.0,11.0,0,0.00,,,0.00,Wunderground v.1.15,2013-09-14 15:55:00,
2013-09-14 12:00:00,84.3,-99.9,29.83,East,99,8.0,8.0,0,0.00,,,0.00,Wunderground v.1.15,2013-09-14 16:00:00,
2013-09-14 12:10:00,84.6,-99.9,29.83,ESE,117,5.0,10.0,0,0.00,,,0.00,Wunderground v.1.15,2013-09-14 16:10:00,
2013-09-14 12:15:00,84.9,-99.9,29.82,ESE,103,4.0,10.0,0,0.00,,,0.00,Wunderground v.1.15,2013-09-14 16:15:00,
2013-09-14 12:25:00,84.5,-99.9,29.82,East,87,10.0,11.0,0,0.00,,,0.00,Wunderground v.1.15,2013-09-14 16:25:00,
2013-09-14 12:30:00,84.6,-99.9,29.82,East,86,9.0,10.0,0,0.00,,,0.00,Wunderground v.1.15,2013-09-14 16:30:00,
2013-09-14 12:35:00,84.3,-99.9,29.82,ENE,71,9.0,10.0,0,0.00,,,0.00,Wunderground v.1.15,2013-09-14 16:35:00,
2013-09-14 12:41:00,84.6,-99.9,29.82,ENE,69,9.0,-999.0,0,-99.99,,,0.00,weatherlink.com 1.10,2013-09-14 16:41:00,
2013-09-14 12:50:00,84.2,-99.9,29.82,East,84,10.0,13.0,0,0.00,,,0.00,Wunderground v.1.15,2013-09-14 16:50:00,
2013-09-14 12:55:00,84.3,-99.9,29.81,East,95,10.0,13.0,0,0.00,,,0.00,Wunderground v.1.15,2013-09-14 16:55:00,
2013-09-14 13:00:00,84.5,-99.9,29.81,ENE,71,9.0,9.0,0,0.00,,,0.00,Wunderground v.1.15,2013-09-14 17:00:00,
2013-09-14 13:05:00,84.7,-99.9,29.81,ENE,68,7.0,9.0,0,0.00,,,0.00,Wunderground v.1.15,2013-09-14 17:05:00,
2013-09-14 13:11:00,84.8,-99.9,29.81,East,88,0.0,-999.0,0,-99.99,,,0.00,weatherlink.com 1.10,2013-09-14 17:11:00,
2013-09-14 13:20:00,85.0,-99.9,29.81,ENE,74,6.0,12.0,0,0.00,,,0.00,Wunderground v.1.15,2013-09-14 17:20:00,
2013-09-14 13:25:00,84.6,-99.9,29.81,East,94,8.0,12.0,0,0.00,,,0.00,Wunderground v.1.15,2013-09-14 17:25:00,
2013-09-14 13:30:00,84.7,-99.9,29.81,East,97,8.0,9.0,0,0.00,,,0.00,Wunderground v.1.15,2013-09-14 17:30:00,
2013-09-14 13:35:00,84.7,-99.9,29.81,East,87,7.0,12.0,0,0.00,,,0.00,Wunderground v.1.15,2013-09-14 17:35:00,
2013-09-14 13:45:00,84.9,-99.9,29.81,ENE,57,6.0,7.0,0,0.00,,,0.00,Wunderground v.1.15,2013-09-14 17:45:00,
2013-09-14 13:50:00,85.0,-99.9,29.81,East,83,7.0,7.0,0,0.00,,,0.00,Wunderground v.1.15,2013-09-14 17:50:00,
2013-09-14 13:55:00,84.7,-99.9,29.81,East,91,8.0,9.0,0,0.00,,,0.00,Wunderground v.1.15,2013-09-14 17:55:00,
2013-09-14 14:05:00,84.6,-99.9,29.80,ENE,78,8.0,10.0,0,0.00,,,0.00,Wunderground v.1.15,2013-09-14 18:05:00,
2013-09-14 14:12:00,84.4,-99.9,29.80,East,81,8.0,-999.0,0,-99.99,,,0.00,weatherlink.com 1.10,2013-09-14 18:12:00,
2013-09-14 14:20:00,84.3,-99.9,29.80,ENE,61,10.0,10.0,0,0.00,,,0.00,Wunderground v.1.15,2013-09-14 18:20:00,
2013-09-14 14:30:00,84.3,-99.9,29.80,ESE,109,10.0,10.0,0,0.00,,,0.00,Wunderground v.1.15,2013-09-14 18:30:00,
2013-09-14 14:35:00,84.3,-99.9,29.80,East,96,9.0,10.0,0,0.00,,,0.00,Wunderground v.1.15,2013-09-14 18:35:00,
2013-09-14 14:45:00,84.8,-99.9,29.79,ENE,74,6.0,-999.0,0,-99.99,,,0.00,weatherlink.com 1.10,2013-09-14 18:45:00,
2013-09-14 14:50:00,84.8,-99.9,29.78,ENE,59,9.0,12.0,0,0.00,,,0.00,Wunderground v.1.15,2013-09-14 18:50:00,
2013-09-14 14:58:00,84.7,-99.9,29.78,East,99,10.0,-999.0,0,-99.99,,,0.00,weatherlink.com 1.10,2013-09-14 18:58:00,
2013-09-14 15:05:00,84.6,-99.9,29.78,ENE,76,8.0,13.0,0,0.00,,,0.00,Wunderground v.1.15,2013-09-14 19:05:00,
2013-09-14 15:10:00,84.8,-99.9,29.78,ENE,71,8.0,8.0,0,0.00,,,0.00,Wunderground v.1.15,2013-09-14 19:10:00,
2013-09-14 15:20:00,84.5,-99.9,29.78,ENE,78,9.0,12.0,0,0.00,,,0.00,Wunderground v.1.15,2013-09-14 19:20:00,
2013-09-14 15:25:00,84.5,-99.9,29.78,East,80,9.0,12.0,0,0.00,,,0.00,Wunderground v.1.15,2013-09-14 19:25:00,
2013-09-14 15:35:00,84.6,-99.9,29.78,ESE,103,10.0,11.0,0,0.00,,,0.00,Wunderground v.1.15,2013-09-14 19:35:00,
2013-09-14 15:40:00,84.6,-99.9,29.78,East,84,10.0,10.0,0,0.00,,,0.00,Wunderground v.1.15,2013-09-14 19:40:00,
2013-09-14 15:50:00,84.3,-99.9,29.79,East,91,11.0,14.0,0,0.00,,,0.00,Wunderground v.1.15,2013-09-14 19:50:00,
2013-09-14 15:58:00,84.3,-99.9,29.79,East,101,16.0,-999.0,0,-99.99,,,0.00,weatherlink.com 1.10,2013-09-14 19:58:00,
2013-09-14 16:05:00,84.1,-99.9,29.79,East,88,11.0,14.0,0,0.00,,,0.00,Wunderground v.1.15,2013-09-14 20:05:00,
2013-09-14 16:10:00,84.3,-99.9,29.79,East,89,11.0,11.0,0,0.00,,,0.00,Wunderground v.1.15,2013-09-14 20:10:00,
2013-09-14 16:20:00,84.1,-99.9,29.79,East,95,12.0,12.0,0,0.00,,,0.00,Wunderground v.1.15,2013-09-14 20:20:00,
2013-09-14 16:25:00,84.2,-99.9,29.79,East,95,12.0,12.0,0,0.00,,,0.00,Wunderground v.1.15,2013-09-14 20:25:00,
2013-09-14 16:30:00,84.2,-99.9,29.79,ENE,75,10.0,12.0,0,0.00,,,0.00,Wunderground v.1.15,2013-09-14 20:30:00,
2013-09-14 16:35:00,84.0,-99.9,29.79,East,88,11.0,12.0,0,0.00,,,0.00,Wunderground v.1.15,2013-09-14 20:35:00,
2013-09-14 16:40:00,84.2,-99.9,29.79,ESE,113,10.0,15.0,0,0.00,,,0.00,Wunderground v.1.15,2013-09-14 20:40:00,
2013-09-14 16:50:00,84.0,-99.9,29.79,East,93,11.0,11.0,0,0.00,,,0.00,Wunderground v.1.15,2013-09-14 20:50:00,
2013-09-14 16:55:00,84.1,-99.9,29.80,East,85,11.0,11.0,0,0.00,,,0.00,Wunderground v.1.15,2013-09-14 20:55:00,
2013-09-14 17:05:00,83.9,-99.9,29.80,East,83,12.0,12.0,0,0.00,,,0.00,Wunderground v.1.15,2013-09-14 21:05:00,
2013-09-14 17:14:00,83.8,-99.9,29.81,East,98,10.0,-999.0,0,-99.99,,,0.00,weatherlink.com 1.10,2013-09-14 21:14:00,
2013-09-14 17:20:00,83.8,-99.9,29.81,East,87,10.0,15.0,0,0.00,,,0.00,Wunderground v.1.15,2013-09-14 21:20:00,
2013-09-14 17:25:00,83.8,-99.9,29.81,ESE,103,9.0,15.0,0,0.00,,,0.00,Wunderground v.1.15,2013-09-14 21:25:00,
2013-09-14 17:35:00,83.5,-99.9,29.81,ESE,105,11.0,16.0,0,0.00,,,0.00,Wunderground v.1.15,2013-09-14 21:35:00,
2013-09-14 17:44:00,83.6,-99.9,29.82,ESE,109,11.0,-999.0,0,-99.99,,,0.00,weatherlink.com 1.10,2013-09-14 21:44:00,
2013-09-14 17:50:00,83.5,-99.9,29.82,ESE,111,10.0,10.0,0,0.00,,,0.00,Wunderground v.1.15,2013-09-14 21:50:00,
2013-09-14 17:55:00,83.5,-99.9,29.82,ENE,78,10.0,11.0,0,0.00,,,0.00,Wunderground v.1.15,2013-09-14 21:55:00,
2013-09-14 18:01:00,83.4,-99.9,29.83,ESE,109,6.0,-999.0,0,-99.99,,,0.00,weatherlink.com 1.10,2013-09-14 22:01:00,
2013-09-14 18:10:00,83.1,-99.9,29.83,ESE,112,11.0,11.0,0,0.00,,,0.00,Wunderground v.1.15,2013-09-14 22:10:00,
2013-09-14 18:20:00,83.0,-99.9,29.82,East,82,11.0,11.0,0,0.00,,,0.00,Wunderground v.1.15,2013-09-14 22:20:00,
2013-09-14 18:30:00,82.8,-99.9,29.82,SE,129,10.0,10.0,0,0.00,,,0.00,Wunderground v.1.15,2013-09-14 22:30:00,
2013-09-14 18:35:00,82.8,-99.9,29.82,ESE,111,10.0,10.0,0,0.00,,,0.00,Wunderground v.1.15,2013-09-14 22:35:00,
2013-09-14 18:45:00,82.8,-99.9,29.82,East,99,7.0,12.0,0,0.00,,,0.00,Wunderground v.1.15,2013-09-14 22:45:00,
2013-09-14 18:50:00,82.7,-99.9,29.83,East,96,7.0,7.0,0,0.00,,,0.00,Wunderground v.1.15,2013-09-14 22:50:00,
2013-09-14 18:55:00,82.6,-99.9,29.83,ESE,107,9.0,9.0,0,0.00,,,0.00,Wunderground v.1.15,2013-09-14 22:55:00,
2013-09-14 19:01:00,82.6,-99.9,29.83,ESE,104,10.0,-999.0,0,-99.99,,,0.00,weatherlink.com 1.10,2013-09-14 23:01:00,
2013-09-14 19:10:00,82.7,-99.9,29.83,East,88,8.0,8.0,0,0.00,,,0.00,Wunderground v.1.15,2013-09-14 23:10:00,
2013-09-14 19:15:00,82.5,-99.9,29.83,East,101,8.0,8.0,0,0.00,,,0.00,Wunderground v.1.15,2013-09-14 23:15:00,
2013-09-14 19:25:00,82.4,-99.9,29.84,ESE,118,7.0,12.0,0,0.00,,,0.00,Wunderground v.1.15,2013-09-14 23:25:00,
2013-09-14 19:30:00,82.4,-99.9,29.84,ESE,115,7.0,7.0,0,0.00,,,0.00,Wunderground v.1.15,2013-09-14 23:30:00,
2013-09-14 19:35:00,82.4,-99.9,29.84,ESE,110,7.0,7.0,0,0.00,,,0.00,Wunderground v.1.15,2013-09-14 23:35:00,
2013-09-14 19:40:00,82.4,-99.9,29.84,ESE,117,6.0,7.0,0,0.00,,,0.00,Wunderground v.1.15,2013-09-14 23:40:00,
2013-09-14 19:46:00,82.4,-99.9,29.84,SE,128,3.0,-999.0,0,-99.99,,,0.00,weatherlink.com 1.10,2013-09-14 23:46:00,
2013-09-14 19:55:00,82.4,-99.9,29.84,ESE,118,8.0,14.0,0,0.00,,,0.00,Wunderground v.1.15,2013-09-14 23:55:00,
2013-09-14 20:05:00,82.4,-99.9,29.84,SE,125,8.0,12.0,0,0.00,,,0.00,Wunderground v.1.15,2013-09-15 00:05:00,
2013-09-14 20:15:00,82.4,-99.9,29.85,SE,133,9.0,15.0,0,0.00,,,0.00,Wunderground v.1.15,2013-09-15 00:15:00,
2013-09-14 20:25:00,82.3,-99.9,29.85,ESE,121,9.0,9.0,0,0.00,,,0.00,Wunderground v.1.15,2013-09-15 00:25:00,
2013-09-14 20:30:00,82.2,-99.9,29.85,SE,133,7.0,7.0,0,0.00,,,0.00,Wunderground v.1.15,2013-09-15 00:30:00,
2013-09-14 20:40:00,81.6,-99.9,29.86,SE,142,0.0,0.0,0,0.00,,,0.00,Wunderground v.1.15,2013-09-15 00:40:00,
2013-09-14 20:45:00,81.4,-99.9,29.86,SE,144,0.0,0.0,0,0.00,,,0.00,Wunderground v.1.15,2013-09-15 00:45:00,
2013-09-14 20:50:00,81.3,-99.9,29.86,SE,145,0.0,0.0,0,0.00,,,0.00,Wunderground v.1.15,2013-09-15 00:50:00,
2013-09-14 21:00:00,81.7,-99.9,29.86,SE,144,0.0,0.0,0,0.00,,,0.00,Wunderground v.1.15,2013-09-15 01:00:00,
2013-09-14 21:05:00,81.5,-99.9,29.87,SE,144,0.0,0.0,0,0.00,,,0.00,Wunderground v.1.15,2013-09-15 01:05:00,
2013-09-14 21:10:00,81.3,-99.9,29.87,SE,144,0.0,0.0,0,0.00,,,0.00,Wunderground v.1.15,2013-09-15 01:10:00,
2013-09-14 21:15:00,81.0,-99.9,29.87,SE,144,0.0,0.0,0,0.00,,,0.00,Wunderground v.1.15,2013-09-15 01:15:00,
2013-09-14 21:25:00,81.1,-99.9,29.88,SE,144,0.0,0.0,0,0.00,,,0.00,Wunderground v.1.15,2013-09-15 01:25:00,
2013-09-14 21:30:00,81.2,-99.9,29.88,SE,144,0.0,0.0,0,0.00,,,0.00,Wunderground v.1.15,2013-09-15 01:30:00,
2013-09-14 21:35:00,81.3,-99.9,29.89,SE,144,0.0,0.0,0,0.00,,,0.00,Wunderground v.1.15,2013-09-15 01:35:00,
2013-09-14 21:45:00,81.7,-99.9,29.89,SE,144,0.0,0.0,0,0.00,,,0.00,Wunderground v.1.15,2013-09-15 01:45:00,
2013-09-14 21:50:00,82.0,-99.9,29.90,SE,144,0.0,0.0,0,0.00,,,0.00,Wunderground v.1.15,2013-09-15 01:50:00,
2013-09-14 22:00:00,81.6,-99.9,29.90,SE,144,0.0,3.0,0,0.00,,,0.00,Wunderground v.1.15,2013-09-15 02:00:00,
2013-09-14 22:10:00,81.3,-99.9,29.90,SSE,149,2.0,4.0,0,0.00,,,0.00,Wunderground v.1.15,2013-09-15 02:10:00,
2013-09-14 22:20:00,80.8,-99.9,29.90,SSE,150,1.0,4.0,0,0.00,,,0.00,Wunderground v.1.15,2013-09-15 02:20:00,
2013-09-14 22:30:00,80.4,-99.9,29.90,SSE,152,2.0,2.0,0,0.00,,,0.00,Wunderground v.1.15,2013-09-15 02:30:00,
2013-09-14 22:35:00,80.3,-99.9,29.90,SSE,150,0.0,2.0,0,0.00,,,0.00,Wunderground v.1.15,2013-09-15 02:35:00,
2013-09-14 22:45:00,80.2,-99.9,29.90,SSE,153,0.0,0.0,0,0.00,,,0.00,Wunderground v.1.15,2013-09-15 02:45:00,
2013-09-14 22:50:00,80.3,-99.9,29.90,SSE,152,0.0,0.0,0,0.00,,,0.00,Wunderground v.1.15,2013-09-15 02:50:00,
2013-09-14 23:00:00,80.1,-99.9,29.90,SSE,153,0.0,4.0,0,0.00,,,0.00,Wunderground v.1.15,2013-09-15 03:00:00,
2013-09-14 23:05:00,80.0,-99.9,29.89,SSE,152,0.0,4.0,0,0.00,,,0.00,Wunderground v.1.15,2013-09-15 03:05:00,
2013-09-14 23:10:00,79.8,-99.9,29.89,SSE,152,2.0,2.0,0,0.00,,,0.00,Wunderground v.1.15,2013-09-15 03:10:00,
2013-09-14 23:15:00,79.8,-99.9,29.89,SSE,152,2.0,2.0,0,0.00,,,0.00,Wunderground v.1.15,2013-09-15 03:15:00,
2013-09-14 23:20:00,79.8,-99.9,29.89,SSE,152,0.0,0.0,0,0.00,,,0.00,Wunderground v.1.15,2013-09-15 03:20:00,
2013-09-14 23:30:00,79.6,-99.9,29.89,SSE,153,0.0,0.0,0,0.00,,,0.00,Wunderground v.1.15,2013-09-15 03:30:00,
2013-09-14 23:36:00,79.5,-99.9,29.89,SSE,153,0.0,-999.0,0,-99.99,,,0.00,weatherlink.com 1.10,2013-09-15 03:36:00,
2013-09-14 23:45:00,80.0,-99.9,29.89,SSE,153,0.0,0.0,0,0.00,,,0.00,Wunderground v.1.15,2013-09-15 03:45:00,
2013-09-14 23:55:00,79.8,-99.9,29.88,SSE,153,1.0,3.0,0,0.00,,,0.00,Wunderground v.1.15,2013-09-15 03:55:00,